Location: Unspecified
(0.0000°N, 0.0000°E)
Time: 12:45:01
(UTC+00:00)

X-37B - Visible Passes

Search period start: 03 August 2020 00:00
Search period end: 13 August 2020 00:00
Orbit: 259 x 286 km, 43.2° (Epoch: 06 October)

Date Brightness Start Highest point End Pass type
(mag) Time Alt. Az. Time Alt. Az. Time Alt. Az.
08 Aug 4.5 19:30:42 10° WSW 19:30:45 10° WSW 19:30:45 10° WSW visible
09 Aug 3.2 19:09:37 10° WSW 19:11:24 26° NW 19:12:38 15° N visible
10 Aug 4.0 18:48:38 10° W 18:50:09 18° NW 18:51:42 10° N visible
11 Aug 4.3 18:27:50 10° WNW 18:28:54 13° NW 18:29:58 10° NNW visible
12 Aug 1.3 05:30:11 10° NW 05:32:13 66° NE 05:34:11 10° SE visible
